Terminal Aerodrome Forecast
Issued by NWS

Home | Current Version | Previous Version | Text Only | Print | Product List | Glossary On
Versions: 1 2 3 4 5 6 7 8 9 10 11 12 13 14 15 16 17 18 19 20 21 22 23 24 25 26 27 28 29
000
FTUS46 KMFR 040543
TAFOTH
TAF
KOTH 040543Z 0406/0506 VRB03KT P6SM SCT025 SCT100
     FM041800 34009KT P6SM BKN030
     FM042100 34012G20KT P6SM BKN035
     FM050300 35008KT P6SM BKN030=

USA.gov is the U.S. government's official web portal to all federal, state and local government web resources and services.